ATLAS 5 CENTAUR DEB, 46846

Orbit data source: Space-Track

ATLAS 5 CENTAUR DEB, 46846 is space debris in HEO originally from a launch on Wed, 17 Oct 2018 UTC launched from the Air Force Eastern Test Range (AFETR). Debris objects in space refer to the collection of defunct objects orbiting the Earth. Examples of debris include non-operational satellites, rocket bodies, and fragments generated from explosions, collisions, or faulty payload assembly.

Loading next visibility...
Identifier
46846, 2018-079DB
Orbit
HEO
Country
Flag of USUS
Related business
Flag of USUnited Launch Alliance/Lockheed Martin (US)
Manufacturer
ULA Decatur
Mission
Spacecraft
Bus & Motor
Unknown
Mass
Unknown
Launch date (UTC)
2018-10-17 (8 years ago)
Launch vehicle
Unknown
Launch site
Air Force Eastern Test Range (AFETR)
Object type
Payload
Rocket body
Debris
Shape & HBR
Unknown shape, 1.1 m
Radar Cross Section
RCS unknown

Expand to show TLE details & history
Last TLE update: 3 days ago

TLE from 3 days ago
0 ATLAS 5 CENTAUR DEB
1 46846U 18079DB  26126.00939013 -.00000076  00000-0  00000-0 0  9999
2 46846  12.3557  66.4064 4704334 260.5871  45.2149  1.71788244 34579
Epoch: 2026-05-06T00:13Z
TLE epoch observation values (Epoch: 2026-05-06T00:13:31.307Z)
Latitude
0.00002°
Longitude
-160.96707°
Altitude
18,463.199 km
Speed
4.308 km/s
True Right ascension
04h 25m 09s
True Declination
0° 00' 00"
Sunlit
Object was in daylight at epoch
Visualization orbit readout
Latitude
Unknown
Longitude
Unknown
Altitude
Unknown
Speed
Unknown
Apparent Right ascension
Unknown
Apparent Declination
Unknown
Sunlit
N/A
Visualization observer readout
Local Sidereal Time
23:49:05
Azimuth
Unknown
Elevation
Unknown
Doppler factor
Unknown
Orbital elements
Apogee altitude
36,927.896 km
Perigee altitude
9,218.236 km
Semi-major axis
29,451.203 km
Eccentricity
0.47043
Inclination
12.3557°
RAAN
66.4064°
Arg. of periapsis
260.5871°
True anomaly
99.47974°
Mean anomaly
45.2149°
Eccentric anomaly
70.64548°
Mean motion
0.42943 °/min
Orbital period
838.33 mins
BSTAR
0
Loading maneuver chart data...
Computing Atmospheric mass density...

Documentation

Showing up to 5 results
|